AMQ724 EPKT-LICJ

Flight info

Callsign AMQ724
Flight time 2h 17m
Altitude 36000
Route TUSIN DCT VALPI DCT KUVEX DCT KOPRY DCT DEVUL DCT DEPET DCT VELUG/N0451F350 DCT RUPAX/N0392F190 M725 SOR M742 ROSAS
Aircraft A320/M-SDE3FGHIRWY/LB1

Departure

Time 2026-05-06 13:31
Airport Katowice Wojciech Korfanty International Airport (EPKT)

Arrival

Time 2026-05-06 15:48
Airport Falcone–Borsellino Airport (LICJ)
Time Latitude Longitude Altitude Speed Heading
2026-05-06 13:05 50.47151 19.07869 990 ft 0 kts 184°
2026-05-06 13:24 50.47163 19.07870 994 ft 3 kts 182°
2026-05-06 13:24 50.47184 19.07871 992 ft 3 kts 176°
2026-05-06 13:24 50.47204 19.07867 995 ft 3 kts 167°
2026-05-06 13:24 50.47222 19.07858 995 ft 3 kts 144°
2026-05-06 13:25 50.47233 19.07840 993 ft 2 kts 97°
2026-05-06 13:25 50.47234 19.07834 990 ft 0 kts 90°
2026-05-06 13:27 50.47234 19.07839 993 ft 3 kts 90°
2026-05-06 13:27 50.47234 19.07927 990 ft 8 kts 90°
2026-05-06 13:28 50.47234 19.08006 997 ft 7 kts 90°
2026-05-06 13:28 50.47233 19.08164 995 ft 21 kts 90°
2026-05-06 13:28 50.47239 19.08383 994 ft 19 kts 85°
2026-05-06 13:28 50.47238 19.08576 996 ft 16 kts 92°
2026-05-06 13:29 50.47233 19.08745 997 ft 18 kts 93°
2026-05-06 13:29 50.47223 19.09009 999 ft 28 kts 93°
2026-05-06 13:29 50.47219 19.09296 1002 ft 26 kts 80°
2026-05-06 13:29 50.47350 19.09382 1002 ft 22 kts 360°
2026-05-06 13:30 50.47503 19.09396 1003 ft 21 kts
2026-05-06 13:30 50.47597 19.09322 1003 ft 15 kts 284°
2026-05-06 13:30 50.47602 19.09140 1003 ft 22 kts 269°
2026-05-06 13:30 50.47601 19.08618 996 ft 81 kts 270°
2026-05-06 13:31 50.47604 19.07409 988 ft 138 kts 269°
2026-05-06 13:31 50.47604 19.05686 1189 ft 163 kts 265°
2026-05-06 13:31 50.47618 19.03975 2010 ft 159 kts 265°
2026-05-06 13:31 50.47619 19.02230 2698 ft 160 kts 266°
2026-05-06 13:32 50.47612 19.00468 3225 ft 168 kts 267°
2026-05-06 13:32 50.47609 18.98516 3487 ft 190 kts 265°
2026-05-06 13:32 50.47604 18.96315 3743 ft 214 kts 267°
2026-05-06 13:32 50.47604 18.93842 4053 ft 238 kts 266°
2026-05-06 13:33 50.47591 18.91151 4582 ft 252 kts 266°
2026-05-06 13:33 50.47561 18.88360 5349 ft 258 kts 266°
2026-05-06 13:33 50.47525 18.85522 6178 ft 262 kts 266°
2026-05-06 13:33 50.47484 18.82639 6968 ft 265 kts 265°
2026-05-06 13:34 50.47443 18.79740 7780 ft 267 kts 266°
2026-05-06 13:34 50.47403 18.76808 8578 ft 270 kts 266°
2026-05-06 13:34 50.47364 18.73855 9375 ft 272 kts 265°
2026-05-06 13:34 50.47324 18.70862 10083 ft 279 kts 265°
2026-05-06 13:35 50.47278 18.67794 10296 ft 301 kts 266°
2026-05-06 13:35 50.47184 18.64283 10472 ft 324 kts 261°
2026-05-06 13:35 50.46639 18.60842 10835 ft 334 kts 247°
2026-05-06 13:35 50.45524 18.57639 11453 ft 338 kts 233°
2026-05-06 13:36 50.43906 18.54949 12133 ft 341 kts 219°
2026-05-06 13:36 50.41874 18.52979 12780 ft 346 kts 207°
2026-05-06 13:36 50.39689 18.51349 13444 ft 349 kts 207°
2026-05-06 13:36 50.37483 18.49717 14041 ft 352 kts 207°
2026-05-06 13:37 50.35258 18.48071 14614 ft 355 kts 207°
2026-05-06 13:37 50.33024 18.46416 15202 ft 357 kts 207°
2026-05-06 13:37 50.30692 18.45018 15771 ft 361 kts 197°
2026-05-06 13:37 50.28194 18.44395 16336 ft 368 kts 185°
2026-05-06 13:38 50.25622 18.44631 16904 ft 374 kts 173°
2026-05-06 13:38 50.23058 18.45432 17500 ft 377 kts 172°
2026-05-06 13:38 50.20479 18.46247 18076 ft 379 kts 172°
2026-05-06 13:38 50.17882 18.47060 18578 ft 382 kts 172°
2026-05-06 13:39 50.15272 18.47869 19066 ft 384 kts 172°
2026-05-06 13:39 50.12639 18.48683 19558 ft 387 kts 172°
2026-05-06 13:39 50.09996 18.49500 20023 ft 389 kts 173°
2026-05-06 13:39 50.07326 18.50324 20500 ft 392 kts 172°
2026-05-06 13:40 50.04642 18.51153 20939 ft 394 kts 173°
2026-05-06 13:40 50.01945 18.51985 21383 ft 397 kts 173°
2026-05-06 13:40 49.99228 18.52825 21778 ft 400 kts 172°
2026-05-06 13:40 49.96526 18.53659 22150 ft 403 kts 172°
2026-05-06 13:41 49.93760 18.54513 22567 ft 405 kts 172°
2026-05-06 13:41 49.90991 18.55368 22967 ft 408 kts 172°
2026-05-06 13:41 49.88190 18.56076 23341 ft 408 kts 179°
2026-05-06 13:41 49.85360 18.56043 23666 ft 406 kts 189°
2026-05-06 13:42 49.82592 18.55204 23992 ft 404 kts 199°
2026-05-06 13:42 49.79978 18.53615 24294 ft 404 kts 208°
2026-05-06 13:42 49.77459 18.51666 24609 ft 406 kts 208°
2026-05-06 13:42 49.74923 18.49718 24931 ft 407 kts 208°
2026-05-06 13:43 49.72378 18.47772 25240 ft 409 kts 208°
2026-05-06 13:43 49.69823 18.45819 25542 ft 410 kts 208°
2026-05-06 13:43 49.67261 18.43861 25850 ft 412 kts 208°
2026-05-06 13:43 49.64686 18.41893 26148 ft 413 kts 208°
2026-05-06 13:44 49.62099 18.39919 26444 ft 414 kts 208°
2026-05-06 13:44 49.59512 18.37950 26719 ft 416 kts 208°
2026-05-06 13:44 49.56941 18.35993 26990 ft 417 kts 208°
2026-05-06 13:44 49.54334 18.34008 27255 ft 419 kts 208°
2026-05-06 13:45 49.51719 18.32017 27515 ft 420 kts 208°
2026-05-06 13:45 49.46460 18.28021 28029 ft 423 kts 208°
2026-05-06 13:45 49.43818 18.26015 28269 ft 424 kts 208°
2026-05-06 13:46 49.41164 18.24007 28472 ft 425 kts 208°
2026-05-06 13:46 49.38502 18.22001 28646 ft 428 kts 208°
2026-05-06 13:46 49.35831 18.19989 28942 ft 427 kts 208°
2026-05-06 13:46 49.33166 18.17980 29247 ft 426 kts 208°
2026-05-06 13:47 49.30515 18.15982 29530 ft 425 kts 208°
2026-05-06 13:47 49.27856 18.13986 29841 ft 424 kts 208°
2026-05-06 13:47 49.25207 18.12000 30117 ft 423 kts 208°
2026-05-06 13:47 49.22564 18.10020 30380 ft 422 kts 208°
2026-05-06 13:48 49.19926 18.08046 30606 ft 422 kts 208°
2026-05-06 13:48 49.17319 18.06100 30826 ft 422 kts 208°
2026-05-06 13:48 49.14647 18.04106 31079 ft 422 kts 208°
2026-05-06 13:48 49.12050 18.02168 31337 ft 421 kts 208°
2026-05-06 13:49 49.09423 18.00211 31609 ft 420 kts 209°
2026-05-06 13:49 49.06805 17.98262 31860 ft 419 kts 209°
2026-05-06 13:49 49.04192 17.96317 32103 ft 418 kts 209°
2026-05-06 13:49 49.01512 17.94578 32353 ft 420 kts 202°
2026-05-06 13:50 48.98713 17.93255 32573 ft 421 kts 201°
2026-05-06 13:50 48.95913 17.91950 32800 ft 421 kts 201°
2026-05-06 13:50 48.93113 17.90645 33048 ft 420 kts 202°
2026-05-06 13:50 48.90321 17.89340 33286 ft 420 kts 202°
2026-05-06 13:51 48.87531 17.88034 33545 ft 419 kts 202°
2026-05-06 13:51 48.84753 17.86735 33770 ft 418 kts 202°
2026-05-06 13:51 48.79183 17.84142 34008 ft 418 kts 203°
2026-05-06 13:52 48.76408 17.82853 34245 ft 417 kts 202°
2026-05-06 13:52 48.73642 17.81566 34458 ft 416 kts 202°
2026-05-06 13:52 48.70876 17.80280 34652 ft 415 kts 202°
2026-05-06 13:52 48.68114 17.78997 34797 ft 415 kts 202°
2026-05-06 13:53 48.62594 17.76440 34828 ft 415 kts 202°
2026-05-06 13:53 48.57107 17.73910 34822 ft 415 kts 202°
2026-05-06 13:54 48.51586 17.71369 34827 ft 415 kts 202°
2026-05-06 13:54 48.46068 17.68830 34827 ft 415 kts 202°
2026-05-06 13:55 48.40549 17.66298 34829 ft 415 kts 202°
2026-05-06 13:55 48.35026 17.63769 34838 ft 414 kts 202°
2026-05-06 13:56 48.30444 17.61677 34835 ft 414 kts 202°
2026-05-06 13:56 48.24923 17.59171 34824 ft 414 kts 202°
2026-05-06 13:57 48.19407 17.56670 34824 ft 414 kts 202°
2026-05-06 13:57 48.13893 17.54151 34822 ft 414 kts 202°
2026-05-06 13:58 48.08377 17.51640 34824 ft 414 kts 202°
2026-05-06 13:58 48.02853 17.49160 34829 ft 414 kts 202°
2026-05-06 13:59 47.97365 17.46698 34830 ft 414 kts 202°
2026-05-06 13:59 47.91848 17.44218 34836 ft 414 kts 202°
2026-05-06 14:00 47.86175 17.42381 34844 ft 418 kts 197°
2026-05-06 14:00 47.80471 17.40719 34854 ft 418 kts 197°
2026-05-06 14:01 47.74764 17.39052 34852 ft 418 kts 197°
2026-05-06 14:01 47.69062 17.37383 34857 ft 417 kts 197°
2026-05-06 14:02 47.63374 17.35727 34862 ft 417 kts 197°
2026-05-06 14:02 47.57682 17.34067 34865 ft 417 kts 197°
2026-05-06 14:03 47.51994 17.32423 34865 ft 417 kts 197°
2026-05-06 14:03 47.46297 17.30785 34865 ft 417 kts 197°
2026-05-06 14:04 47.40646 17.29155 34868 ft 416 kts 197°
2026-05-06 14:04 47.34907 17.27499 34868 ft 419 kts 197°
2026-05-06 14:05 47.29221 17.25859 34869 ft 419 kts 196°
2026-05-06 14:05 47.23504 17.24224 34874 ft 419 kts 196°
2026-05-06 14:06 47.17783 17.22591 34876 ft 419 kts 196°
2026-05-06 14:06 47.12062 17.20961 34875 ft 419 kts 196°
2026-05-06 14:07 47.06332 17.19329 34896 ft 419 kts 196°
2026-05-06 14:07 47.00604 17.17697 34906 ft 419 kts 196°
2026-05-06 14:08 46.94880 17.16079 34909 ft 419 kts 196°
2026-05-06 14:08 46.89158 17.14471 34913 ft 418 kts 196°
2026-05-06 14:09 46.83446 17.12853 34918 ft 418 kts 196°
2026-05-06 14:09 46.77733 17.11245 34919 ft 418 kts 196°
2026-05-06 14:10 46.72024 17.09638 34913 ft 418 kts 196°
2026-05-06 14:10 46.66326 17.08023 34922 ft 417 kts 196°
2026-05-06 14:11 46.60627 17.06428 34921 ft 417 kts 196°
2026-05-06 14:11 46.54966 17.04857 34920 ft 417 kts 196°
2026-05-06 14:12 46.49270 17.03283 34920 ft 417 kts 195°
2026-05-06 14:12 46.43573 17.01711 34921 ft 417 kts 195°
2026-05-06 14:13 46.37883 17.00132 34924 ft 416 kts 195°
2026-05-06 14:13 46.32189 16.98546 34927 ft 416 kts 195°
2026-05-06 14:14 46.26508 16.96972 34925 ft 416 kts 195°
2026-05-06 14:14 46.20963 16.94814 34931 ft 411 kts 202°
2026-05-06 14:15 46.15528 16.92201 34928 ft 411 kts 202°
2026-05-06 14:15 46.10098 16.89613 34927 ft 411 kts 202°
2026-05-06 14:16 46.04675 16.87028 34929 ft 410 kts 202°
2026-05-06 14:16 45.99252 16.84452 34932 ft 410 kts 202°
2026-05-06 14:17 45.93830 16.81883 34922 ft 411 kts 202°
2026-05-06 14:17 45.88391 16.79298 34930 ft 412 kts 202°
2026-05-06 14:18 45.82946 16.76717 34924 ft 412 kts 202°
2026-05-06 14:18 45.77500 16.74145 34927 ft 412 kts 202°
2026-05-06 14:19 45.72055 16.71577 34927 ft 412 kts 201°
2026-05-06 14:19 45.66610 16.69024 34930 ft 411 kts 201°
2026-05-06 14:20 45.61172 16.66482 34929 ft 411 kts 201°
2026-05-06 14:20 45.55736 16.63935 34928 ft 411 kts 201°
2026-05-06 14:21 45.50334 16.61408 34928 ft 411 kts 201°
2026-05-06 14:21 45.44898 16.58868 34926 ft 411 kts 201°
2026-05-06 14:22 45.39461 16.56332 34929 ft 411 kts 201°
2026-05-06 14:22 45.34014 16.53811 34928 ft 412 kts 201°
2026-05-06 14:23 45.28560 16.51285 34931 ft 412 kts 201°
2026-05-06 14:23 45.23100 16.48764 34932 ft 413 kts 201°
2026-05-06 14:24 45.17643 16.46240 34931 ft 412 kts 201°
2026-05-06 14:24 45.12352 16.43212 34931 ft 408 kts 213°
2026-05-06 14:25 45.07772 16.38582 34930 ft 407 kts 218°
2026-05-06 14:25 45.03227 16.33795 35074 ft 408 kts 218°
2026-05-06 14:26 45.00956 16.31408 35276 ft 407 kts 218°
2026-05-06 14:26 44.98682 16.29020 35468 ft 407 kts 218°
2026-05-06 14:26 44.96409 16.26640 35642 ft 407 kts 218°
2026-05-06 14:26 44.94139 16.24267 35820 ft 406 kts 218°
2026-05-06 14:27 44.91865 16.21889 35927 ft 407 kts 218°
2026-05-06 14:27 44.89589 16.19508 35964 ft 407 kts 218°
2026-05-06 14:27 44.85037 16.14764 35954 ft 406 kts 218°
2026-05-06 14:28 44.80500 16.10045 35954 ft 405 kts 218°
2026-05-06 14:28 44.75961 16.05327 35963 ft 405 kts 218°
2026-05-06 14:29 44.71429 16.00620 35967 ft 405 kts 218°
2026-05-06 14:29 44.66528 15.96723 35969 ft 409 kts 202°
2026-05-06 14:30 44.60974 15.94822 35972 ft 412 kts 196°
2026-05-06 14:30 44.55379 15.93097 35978 ft 412 kts 196°
2026-05-06 14:31 44.49775 15.91361 35984 ft 413 kts 196°
2026-05-06 14:31 44.44162 15.89626 35972 ft 413 kts 196°
2026-05-06 14:32 44.38574 15.87912 35978 ft 414 kts 196°
2026-05-06 14:32 44.32944 15.86194 35983 ft 414 kts 196°
2026-05-06 14:33 44.27320 15.84469 35958 ft 414 kts 196°
2026-05-06 14:33 44.21677 15.82746 35970 ft 416 kts 196°
2026-05-06 14:34 44.16006 15.81029 35979 ft 417 kts 196°
2026-05-06 14:34 44.10335 15.79322 35985 ft 418 kts 196°
2026-05-06 14:35 44.04659 15.77600 35987 ft 418 kts 197°
2026-05-06 14:35 44.01823 15.76736 35667 ft 416 kts 197°
2026-05-06 14:35 43.98999 15.75878 35144 ft 415 kts 197°
2026-05-06 14:36 43.96168 15.75020 34966 ft 417 kts 197°
2026-05-06 14:36 43.93327 15.74161 34988 ft 419 kts 197°
2026-05-06 14:36 43.87621 15.72445 34990 ft 419 kts 197°
2026-05-06 14:37 43.81965 15.70748 34986 ft 418 kts 197°
2026-05-06 14:37 43.76279 15.69037 34992 ft 418 kts 197°
2026-05-06 14:38 43.70583 15.67327 34991 ft 418 kts 197°
2026-05-06 14:38 43.64888 15.65629 34982 ft 419 kts 197°
2026-05-06 14:39 43.59199 15.63936 35002 ft 418 kts 198°
2026-05-06 14:39 43.56360 15.63090 34789 ft 417 kts 198°
2026-05-06 14:39 43.53526 15.62244 34403 ft 416 kts 198°
2026-05-06 14:40 43.50695 15.61400 34093 ft 416 kts 198°
2026-05-06 14:40 43.47862 15.60558 33839 ft 418 kts 198°
2026-05-06 14:40 43.45018 15.59712 33563 ft 418 kts 198°
2026-05-06 14:40 43.42171 15.58865 33292 ft 419 kts 198°
2026-05-06 14:41 43.39352 15.58028 33034 ft 420 kts 198°
2026-05-06 14:41 43.36497 15.57182 32757 ft 421 kts 198°
2026-05-06 14:41 43.33631 15.56334 32483 ft 421 kts 198°
2026-05-06 14:41 43.30769 15.55489 32217 ft 422 kts 198°
2026-05-06 14:42 43.27912 15.54648 31959 ft 418 kts 198°
2026-05-06 14:42 43.25081 15.53812 31704 ft 417 kts 198°
2026-05-06 14:42 43.22241 15.52976 31448 ft 417 kts 198°
2026-05-06 14:42 43.19399 15.52143 31197 ft 418 kts 198°
2026-05-06 14:43 43.16557 15.51312 30948 ft 418 kts 198°
2026-05-06 14:43 43.13712 15.50477 30685 ft 419 kts 197°
2026-05-06 14:43 43.10860 15.49637 30438 ft 420 kts 197°
2026-05-06 14:43 43.08004 15.48798 30192 ft 420 kts 197°
2026-05-06 14:44 43.05137 15.47958 29979 ft 421 kts 197°
2026-05-06 14:44 43.02273 15.47125 29954 ft 421 kts 197°
2026-05-06 14:45 42.93692 15.44634 29952 ft 422 kts 197°
2026-05-06 14:45 42.87795 15.43910 29952 ft 432 kts 184°
2026-05-06 14:46 42.81786 15.44247 29950 ft 432 kts 183°
2026-05-06 14:46 42.75777 15.44609 29925 ft 432 kts 184°
2026-05-06 14:47 42.70775 15.44894 29922 ft 433 kts 184°
2026-05-06 14:47 42.64751 15.45222 29920 ft 433 kts 184°
2026-05-06 14:48 42.58718 15.45559 29920 ft 434 kts 184°
2026-05-06 14:48 42.52685 15.45901 29909 ft 434 kts 183°
2026-05-06 14:49 42.46644 15.46235 29910 ft 435 kts 183°
2026-05-06 14:49 42.40597 15.46580 29918 ft 435 kts 183°
2026-05-06 14:50 42.34548 15.46919 29916 ft 435 kts 184°
2026-05-06 14:50 42.28655 15.45843 29921 ft 422 kts 202°
2026-05-06 14:51 42.23344 15.42576 29744 ft 425 kts 210°
2026-05-06 14:51 42.20696 15.40761 29308 ft 426 kts 210°
2026-05-06 14:51 42.18076 15.38988 28943 ft 419 kts 210°
2026-05-06 14:51 42.15507 15.37263 28693 ft 405 kts 210°
2026-05-06 14:52 42.13049 15.35618 28328 ft 395 kts 210°
2026-05-06 14:52 42.10595 15.33970 28093 ft 384 kts 210°
2026-05-06 14:52 42.08229 15.32377 27679 ft 377 kts 210°
2026-05-06 14:52 42.05897 15.30805 27186 ft 373 kts 210°
2026-05-06 14:53 42.03613 15.29265 26677 ft 371 kts 210°
2026-05-06 14:53 42.01277 15.27684 26443 ft 383 kts 210°
2026-05-06 14:53 41.98845 15.26033 26312 ft 399 kts 211°
2026-05-06 14:53 41.96316 15.24321 26185 ft 413 kts 210°
2026-05-06 14:54 41.93705 15.22556 26063 ft 426 kts 210°
2026-05-06 14:54 41.91022 15.20752 25939 ft 435 kts 210°
2026-05-06 14:54 41.88298 15.18931 25806 ft 438 kts 210°
2026-05-06 14:54 41.85573 15.17112 25691 ft 438 kts 210°
2026-05-06 14:55 41.82847 15.15294 25576 ft 437 kts 210°
2026-05-06 14:55 41.80124 15.13478 25450 ft 437 kts 210°
2026-05-06 14:55 41.77408 15.11665 25342 ft 436 kts 210°
2026-05-06 14:55 41.74696 15.09854 25222 ft 435 kts 210°
2026-05-06 14:56 41.71987 15.08046 25098 ft 435 kts 210°
2026-05-06 14:56 41.69283 15.06244 24991 ft 434 kts 210°
2026-05-06 14:56 41.66582 15.04447 24875 ft 433 kts 210°
2026-05-06 14:56 41.63879 15.02655 24753 ft 433 kts 209°
2026-05-06 14:57 41.61172 15.00863 24642 ft 432 kts 210°
2026-05-06 14:57 41.58484 14.99082 24522 ft 432 kts 210°
2026-05-06 14:57 41.55790 14.97295 24406 ft 431 kts 210°
2026-05-06 14:57 41.53142 14.95538 24300 ft 430 kts 210°
2026-05-06 14:58 41.50466 14.93763 24174 ft 431 kts 210°
2026-05-06 14:58 41.47785 14.91984 24056 ft 429 kts 210°
2026-05-06 14:58 41.45122 14.90219 23925 ft 427 kts 210°
2026-05-06 14:58 41.42458 14.88458 23778 ft 426 kts 210°
2026-05-06 14:59 41.39804 14.86712 23644 ft 425 kts 210°
2026-05-06 14:59 41.37157 14.84970 23493 ft 424 kts 210°
2026-05-06 14:59 41.34511 14.83230 23341 ft 423 kts 209°
2026-05-06 14:59 41.31875 14.81500 23176 ft 423 kts 209°
2026-05-06 15:00 41.29240 14.79770 23019 ft 421 kts 209°
2026-05-06 15:00 41.26621 14.78043 22857 ft 420 kts 209°
2026-05-06 15:00 41.24006 14.76312 22686 ft 419 kts 209°
2026-05-06 15:00 41.21396 14.74588 22526 ft 420 kts 209°
2026-05-06 15:01 41.18777 14.72863 22358 ft 419 kts 209°
2026-05-06 15:01 41.16167 14.71149 22218 ft 418 kts 209°
2026-05-06 15:01 41.13563 14.69444 22060 ft 417 kts 209°
2026-05-06 15:01 41.10961 14.67740 21905 ft 417 kts 209°
2026-05-06 15:02 41.08358 14.66035 21752 ft 416 kts 209°
2026-05-06 15:02 41.05764 14.64339 21601 ft 415 kts 209°
2026-05-06 15:02 41.03176 14.62644 21439 ft 414 kts 209°
2026-05-06 15:02 41.00596 14.60954 21290 ft 414 kts 209°
2026-05-06 15:03 40.98059 14.59296 21144 ft 409 kts 208°
2026-05-06 15:03 40.95537 14.57659 20987 ft 398 kts 208°
2026-05-06 15:03 40.93062 14.56057 20838 ft 395 kts 208°
2026-05-06 15:03 40.90605 14.54462 20688 ft 393 kts 208°
2026-05-06 15:04 40.88155 14.52865 20540 ft 392 kts 208°
2026-05-06 15:04 40.85716 14.51273 20394 ft 391 kts 208°
2026-05-06 15:04 40.83281 14.49690 20227 ft 389 kts 208°
2026-05-06 15:04 40.80861 14.48125 20093 ft 388 kts 208°
2026-05-06 15:05 40.78433 14.46557 19942 ft 387 kts 208°
2026-05-06 15:05 40.76020 14.44997 19792 ft 386 kts 208°
2026-05-06 15:05 40.73615 14.43437 19649 ft 385 kts 208°
2026-05-06 15:05 40.71217 14.41882 19503 ft 384 kts 208°
2026-05-06 15:06 40.68820 14.40329 19359 ft 383 kts 208°
2026-05-06 15:06 40.66430 14.38784 19216 ft 382 kts 208°
2026-05-06 15:06 40.64045 14.37248 19074 ft 381 kts 208°
2026-05-06 15:06 40.61666 14.35719 18928 ft 380 kts 208°
2026-05-06 15:07 40.59294 14.34192 18795 ft 379 kts 208°
2026-05-06 15:07 40.56859 14.32856 18655 ft 380 kts 202°
2026-05-06 15:07 40.54371 14.31690 18518 ft 379 kts 202°
2026-05-06 15:07 40.51896 14.30527 18377 ft 378 kts 202°
2026-05-06 15:08 40.49417 14.29364 18218 ft 377 kts 202°
2026-05-06 15:08 40.46945 14.28208 18031 ft 376 kts 202°
2026-05-06 15:08 40.44485 14.27055 17826 ft 375 kts 202°
2026-05-06 15:08 40.42026 14.25902 17649 ft 375 kts 202°
2026-05-06 15:09 40.39578 14.24756 17464 ft 374 kts 202°
2026-05-06 15:09 40.37130 14.23613 17279 ft 373 kts 202°
2026-05-06 15:09 40.34717 14.22487 17100 ft 372 kts 202°
2026-05-06 15:09 40.32282 14.21348 16936 ft 371 kts 202°
2026-05-06 15:10 40.29849 14.20209 16752 ft 370 kts 201°
2026-05-06 15:10 40.27422 14.19075 16575 ft 370 kts 201°
2026-05-06 15:10 40.25003 14.17951 16386 ft 369 kts 201°
2026-05-06 15:10 40.22591 14.16835 16210 ft 367 kts 201°
2026-05-06 15:11 40.20187 14.15718 16034 ft 366 kts 201°
2026-05-06 15:11 40.17787 14.14602 15863 ft 366 kts 201°
2026-05-06 15:11 40.15388 14.13485 15687 ft 365 kts 201°
2026-05-06 15:11 40.13001 14.12369 15517 ft 365 kts 201°
2026-05-06 15:12 40.10619 14.11249 15341 ft 364 kts 201°
2026-05-06 15:12 40.08238 14.10136 15175 ft 364 kts 201°
2026-05-06 15:12 40.05854 14.09024 15005 ft 363 kts 201°
2026-05-06 15:12 40.03472 14.07915 14826 ft 363 kts 201°
2026-05-06 15:13 40.01093 14.06811 14657 ft 362 kts 200°
2026-05-06 15:13 39.98720 14.05708 14494 ft 362 kts 200°
2026-05-06 15:13 39.96353 14.04607 14329 ft 362 kts 200°
2026-05-06 15:13 39.93985 14.03509 14164 ft 361 kts 200°
2026-05-06 15:14 39.91616 14.02413 13998 ft 361 kts 200°
2026-05-06 15:14 39.89249 14.01316 13843 ft 360 kts 200°
2026-05-06 15:14 39.86893 14.00223 13694 ft 360 kts 200°
2026-05-06 15:14 39.84532 13.99128 13539 ft 359 kts 200°
2026-05-06 15:15 39.82184 13.98039 13371 ft 358 kts 200°
2026-05-06 15:15 39.79840 13.96955 13210 ft 357 kts 200°
2026-05-06 15:15 39.77494 13.95876 13058 ft 357 kts 200°
2026-05-06 15:15 39.75156 13.94803 12903 ft 356 kts 200°
2026-05-06 15:16 39.72825 13.93732 12748 ft 355 kts 200°
2026-05-06 15:16 39.70503 13.92660 12597 ft 354 kts 200°
2026-05-06 15:16 39.68216 13.91602 12446 ft 353 kts 200°
2026-05-06 15:16 39.65875 13.90522 12291 ft 352 kts 200°
2026-05-06 15:17 39.63606 13.89479 12124 ft 339 kts 200°
2026-05-06 15:17 39.61454 13.88494 12002 ft 325 kts 200°
2026-05-06 15:17 39.59360 13.87539 11872 ft 312 kts 200°
2026-05-06 15:17 39.57351 13.86621 11751 ft 301 kts 200°
2026-05-06 15:18 39.55412 13.85734 11610 ft 290 kts 200°
2026-05-06 15:18 39.53542 13.84879 11499 ft 281 kts 200°
2026-05-06 15:18 39.51711 13.84042 11218 ft 277 kts 200°
2026-05-06 15:18 39.49906 13.83214 10883 ft 275 kts 200°
2026-05-06 15:19 39.48110 13.82390 10539 ft 273 kts 199°
2026-05-06 15:19 39.46321 13.81574 10196 ft 272 kts 199°
2026-05-06 15:19 39.44543 13.80763 9843 ft 271 kts 199°
2026-05-06 15:19 39.42771 13.79954 9444 ft 269 kts 199°
2026-05-06 15:20 39.41002 13.79148 9063 ft 268 kts 199°
2026-05-06 15:20 39.39247 13.78351 8991 ft 269 kts 199°
2026-05-06 15:20 39.37473 13.77545 8993 ft 270 kts 199°
2026-05-06 15:20 39.35703 13.76739 8994 ft 270 kts 199°
2026-05-06 15:21 39.33927 13.75931 8994 ft 270 kts 199°
2026-05-06 15:21 39.32154 13.75129 8994 ft 270 kts 199°
2026-05-06 15:21 39.30380 13.74328 8951 ft 269 kts 199°
2026-05-06 15:21 39.28612 13.73530 8809 ft 269 kts 199°
2026-05-06 15:22 39.26846 13.72731 8687 ft 269 kts 199°
2026-05-06 15:22 39.25079 13.71933 8560 ft 269 kts 199°
2026-05-06 15:22 39.23335 13.71147 8432 ft 269 kts 199°
2026-05-06 15:22 39.21546 13.70341 8296 ft 268 kts 199°
2026-05-06 15:23 39.19800 13.69553 8172 ft 270 kts 199°
2026-05-06 15:23 39.18031 13.68754 8052 ft 270 kts 199°
2026-05-06 15:23 39.16258 13.67952 7986 ft 269 kts 199°
2026-05-06 15:23 39.14492 13.67155 7989 ft 270 kts 199°
2026-05-06 15:24 39.12720 13.66356 7988 ft 270 kts 199°
2026-05-06 15:24 39.10948 13.65558 7985 ft 270 kts 199°
2026-05-06 15:24 39.09177 13.64761 7987 ft 270 kts 199°
2026-05-06 15:24 39.07403 13.63963 7987 ft 270 kts 199°
2026-05-06 15:25 39.05633 13.63167 7989 ft 270 kts 199°
2026-05-06 15:25 39.03862 13.62371 7988 ft 270 kts 199°
2026-05-06 15:25 39.02093 13.61577 7989 ft 270 kts 199°
2026-05-06 15:25 39.00319 13.60783 7983 ft 270 kts 198°
2026-05-06 15:26 38.98544 13.59990 7984 ft 271 kts 199°
2026-05-06 15:26 38.96762 13.59194 7985 ft 271 kts 199°
2026-05-06 15:26 38.94983 13.58395 7986 ft 271 kts 199°
2026-05-06 15:26 38.93202 13.57595 7986 ft 271 kts 199°
2026-05-06 15:27 38.91422 13.56796 7986 ft 271 kts 199°
2026-05-06 15:27 38.89645 13.55981 7986 ft 271 kts 201°
2026-05-06 15:27 38.87958 13.54969 7984 ft 271 kts 208°
2026-05-06 15:27 38.86356 13.53686 7983 ft 272 kts 214°
2026-05-06 15:28 38.84874 13.52172 7986 ft 273 kts 220°
2026-05-06 15:28 38.83529 13.50453 7986 ft 274 kts 226°
2026-05-06 15:28 38.82340 13.48543 7993 ft 274 kts 233°
2026-05-06 15:28 38.81302 13.46492 7989 ft 275 kts 235°
2026-05-06 15:29 38.80269 13.44434 7986 ft 274 kts 234°
2026-05-06 15:29 38.79232 13.42386 7977 ft 273 kts 235°
2026-05-06 15:29 38.78196 13.40339 7981 ft 273 kts 235°
2026-05-06 15:29 38.77162 13.38300 7979 ft 273 kts 235°
2026-05-06 15:30 38.76126 13.36259 7982 ft 273 kts 235°
2026-05-06 15:30 38.75092 13.34217 7982 ft 273 kts 235°
2026-05-06 15:30 38.74060 13.32175 7981 ft 273 kts 235°
2026-05-06 15:30 38.73029 13.30136 7984 ft 273 kts 235°
2026-05-06 15:31 38.71995 13.28094 7984 ft 273 kts 235°
2026-05-06 15:31 38.70960 13.26052 7981 ft 273 kts 235°
2026-05-06 15:31 38.69928 13.24016 7986 ft 273 kts 235°
2026-05-06 15:32 38.67857 13.19939 7983 ft 273 kts 235°
2026-05-06 15:32 38.66819 13.17899 7983 ft 273 kts 235°
2026-05-06 15:32 38.65799 13.15893 7984 ft 273 kts 235°
2026-05-06 15:32 38.64763 13.13856 7982 ft 273 kts 235°
2026-05-06 15:33 38.63729 13.11825 7990 ft 271 kts 234°
2026-05-06 15:33 38.62696 13.09804 7984 ft 271 kts 234°
2026-05-06 15:33 38.61667 13.07793 7984 ft 271 kts 234°
2026-05-06 15:33 38.60639 13.05784 7988 ft 269 kts 234°
2026-05-06 15:34 38.59615 13.03782 7980 ft 269 kts 234°
2026-05-06 15:34 38.58593 13.01786 7985 ft 269 kts 234°
2026-05-06 15:34 38.57569 12.99784 7984 ft 269 kts 234°
2026-05-06 15:34 38.56547 12.97786 7983 ft 269 kts 234°
2026-05-06 15:35 38.55524 12.95786 7988 ft 269 kts 234°
2026-05-06 15:35 38.54502 12.93786 7973 ft 267 kts 234°
2026-05-06 15:35 38.53516 12.91859 7986 ft 251 kts 234°
2026-05-06 15:35 38.52570 12.90012 7986 ft 247 kts 234°
2026-05-06 15:36 38.51950 12.88800 7985 ft 246 kts 234°
2026-05-06 15:36 38.51011 12.86970 7986 ft 246 kts 234°
2026-05-06 15:36 38.50075 12.85146 7952 ft 245 kts 234°
2026-05-06 15:36 38.49142 12.83329 7970 ft 245 kts 234°
2026-05-06 15:37 38.48203 12.81508 7985 ft 246 kts 234°
2026-05-06 15:37 38.47261 12.79682 7985 ft 246 kts 234°
2026-05-06 15:37 38.46321 12.77858 7983 ft 246 kts 234°
2026-05-06 15:37 38.45381 12.76035 7983 ft 245 kts 233°
2026-05-06 15:38 38.44415 12.74256 7984 ft 243 kts 225°
2026-05-06 15:38 38.43083 12.72982 7987 ft 239 kts 202°
2026-05-06 15:38 38.41476 12.72504 7932 ft 240 kts 180°
2026-05-06 15:38 38.39848 12.72908 7811 ft 240 kts 159°
2026-05-06 15:39 38.38370 12.73799 7680 ft 230 kts 157°
2026-05-06 15:39 38.36958 12.74647 7554 ft 220 kts 157°
2026-05-06 15:39 38.35602 12.75455 7427 ft 210 kts 157°
2026-05-06 15:39 38.34307 12.76224 7300 ft 204 kts 158°
2026-05-06 15:40 38.33001 12.76994 7184 ft 208 kts 157°
2026-05-06 15:40 38.31677 12.77773 7044 ft 211 kts 157°
2026-05-06 15:40 38.30794 12.78291 6941 ft 213 kts 157°
2026-05-06 15:40 38.29930 12.78800 6751 ft 213 kts 157°
2026-05-06 15:41 38.28587 12.79596 6414 ft 213 kts 156°
2026-05-06 15:41 38.27550 12.80212 6134 ft 215 kts 156°
2026-05-06 15:41 38.26232 12.80995 5778 ft 216 kts 156°
2026-05-06 15:41 38.24870 12.81804 5382 ft 217 kts 156°
2026-05-06 15:42 38.23481 12.82597 5015 ft 219 kts 157°
2026-05-06 15:42 38.22066 12.83366 4639 ft 222 kts 157°
2026-05-06 15:42 38.20635 12.84134 4243 ft 224 kts 157°
2026-05-06 15:42 38.19191 12.84907 3864 ft 226 kts 157°
2026-05-06 15:43 38.17789 12.85662 3731 ft 215 kts 156°
2026-05-06 15:43 38.16460 12.86379 3661 ft 201 kts 156°
2026-05-06 15:43 38.15221 12.87046 3608 ft 187 kts 156°
2026-05-06 15:43 38.14031 12.87685 3516 ft 184 kts 156°
2026-05-06 15:44 38.12856 12.88318 3434 ft 183 kts 156°
2026-05-06 15:44 38.11829 12.89230 3350 ft 182 kts 126°
2026-05-06 15:44 38.11471 12.90757 3175 ft 189 kts 88°
2026-05-06 15:44 38.11893 12.92356 2863 ft 192 kts 70°
2026-05-06 15:45 38.12426 12.93904 2570 ft 191 kts 70°
2026-05-06 15:45 38.12959 12.95457 2282 ft 192 kts 70°
2026-05-06 15:45 38.13489 12.97003 2015 ft 187 kts 69°
2026-05-06 15:45 38.13992 12.98470 1769 ft 175 kts 70°
2026-05-06 15:46 38.14450 12.99811 1539 ft 157 kts 68°
2026-05-06 15:46 38.14864 13.01031 1333 ft 144 kts 66°
2026-05-06 15:46 38.15252 13.02179 1143 ft 138 kts 64°
2026-05-06 15:46 38.15627 13.03293 953 ft 138 kts 66°
2026-05-06 15:47 38.15999 13.04394 787 ft 136 kts 65°
2026-05-06 15:47 38.16378 13.05517 630 ft 135 kts 66°
2026-05-06 15:47 38.16741 13.06589 473 ft 133 kts 66°
2026-05-06 15:47 38.17117 13.07676 315 ft 133 kts 66°
2026-05-06 15:48 38.17472 13.08753 138 ft 131 kts 66°
2026-05-06 15:48 38.17810 13.09748 66 ft 100 kts 66°
2026-05-06 15:48 38.17953 13.10203 64 ft 23 kts 67°
2026-05-06 15:48 38.18026 13.10420 66 ft 29 kts 67°
2026-05-06 15:49 38.18101 13.10640 68 ft 26 kts 66°
2026-05-06 15:49 38.18164 13.10699 70 ft 10 kts 317°
2026-05-06 15:49 38.18175 13.10658 69 ft 0 kts 276°
2026-05-06 15:50 38.18175 13.10651 69 ft 2 kts 276°
2026-05-06 15:50 38.18177 13.10630 61 ft 3 kts 276°
2026-05-06 15:50 38.18183 13.10576 66 ft 13 kts 278°
2026-05-06 15:51 38.18192 13.10489 63 ft 9 kts 277°
2026-05-06 15:51 38.18204 13.10418 66 ft 8 kts 295°
2026-05-06 15:51 38.18242 13.10374 63 ft 7 kts 329°
2026-05-06 15:51 38.18283 13.10367 63 ft 6 kts 16°
2026-05-06 15:52 38.18310 13.10420 59 ft 9 kts 66°
2026-05-06 15:52 38.18354 13.10485 63 ft 10 kts 23°
2026-05-06 15:52 38.18387 13.10501 65 ft 2 kts 20°
2026-05-06 15:52 38.18402 13.10508 58 ft 3 kts 20°
2026-05-06 15:53 38.18425 13.10521 63 ft 4 kts 28°
2026-05-06 15:53 38.18447 13.10553 59 ft 3 kts 57°
2026-05-06 15:53 38.18453 13.10565 61 ft 1 kts 58°
2026-05-06 15:53 38.18475 13.10581 63 ft 4 kts
2026-05-06 15:54 38.18484 13.10581 65 ft 4 kts 356°
2026-05-06 15:54 38.18500 13.10574 60 ft 0 kts 340°
2026-05-06 15:54 38.18508 13.10570 57 ft 1 kts 338°
2026-05-06 15:54 38.18522 13.10562 60 ft 1 kts 338°
2026-05-06 15:55 38.18528 13.10559 62 ft 0 kts 337°